LFKCLFKF

Guest
Details From LFKC - St Catherine
To LFKF - Figari Sud Corse
Flight Number -
Tags generated
Created
Modified
Stats Distance 64 nm / 118 km
Max Altitude 8,400 ft / 2,560 m
Waypoints 3
Social Downloads 1
Likes 0
Share VATSIM

Download

Looking for another format? Having issues loading an existing format? Contact us
Advertisement - Login to hide

Notes

Basic altitude profile: - Ascent Rate: 2500ft/min - Ascent Speed: 250kts - Cruise Altitude: 35000ft - Cruise Speed: 420kts - Descent Rate: 1500ft/min - Descent Speed: 250kts

Route

LFKC VICCO LFKF

ID Type Via Altitude Latitude Longitude Leg Dist Tot Dist Heading (true) Name
O LFKC APT - 0 ft / 0 m 42.53076˚ 8.79293˚ - 0 nm - St Catherine
VICCO FIX - 8,400 ft / 2,560 m 42.13944˚ 8.81583˚ 23 nm 23 nm 178° / 178° -
O LFKF APT - 0 ft / 0 m 41.50206˚ 9.09696˚ 40 nm 63 nm 162° / 162° Figari Sud Corse

Altitude Profile

Advertisement - Login to hide

LFKC

Details ICAO LFKC (CLY)
Name St Catherine
Region France
Timezone Europe/Paris (UTC+2.0)
Stats Elevation 208 ft / 63 m (AMSL)
Location 42.530762° 8.792925°
Runways 1
Magnetic Variation 2.389° E

METAR

LFKC 212230Z AUTO VRB01KT 9999 FEW021 BKN028 BKN054 16/16 Q1011

Decode

TAF

TAF LFKC 212030Z 2120/2215 CNL

Decode

Departure Runways

ID Width Length Bearing (true) Bearing (mag) Surface Threshold Offset Overrun Length
18 131 ft / 40 m 7,596 ft / 2,315 m 179.60° 177.21° Concrete 0 ft / 0 m 0 ft / 0 m
36 131 ft / 40 m 7,596 ft / 2,315 m 359.60° 357.21° Concrete 656 ft / 200 m 0 ft / 0 m

LFKF

Details ICAO LFKF (FSC)
Name Figari Sud Corse
Region France
Timezone Europe/Paris (UTC+2.0)
Stats Elevation 87 ft / 27 m (AMSL)
Location 41.502064° 9.096960°
Runways 1
Magnetic Variation 2.424° E

METAR

LFKF 212230Z AUTO 07004KT 9999 SCT015/// OVC046/// ///TCU 17/16 Q1011

Decode

TAF

TAF TAF LFKF 212130Z 2121/2215 CNL

Decode

Destination Runways

ID Width Length Bearing (true) Bearing (mag) Surface Threshold Offset Overrun Length
05 148 ft / 45 m 8,131 ft / 2,478 m 47.42° 45.00° Asphalt 0 ft / 0 m 0 ft / 0 m
23 148 ft / 45 m 8,131 ft / 2,478 m 227.44° 225.02° Asphalt 0 ft / 0 m 0 ft / 0 m

Approach Navaids

Runway Type Ident Frequency Range Bearing (true) Bearing (mag) Slope Elevation
23 Localiser GR 110.50 MHz 27 nm / 50 km 229.00° 226.58° - 87 ft / 27 m (AMSL)
23 Glidescope GR 110.50 MHz 27 nm / 50 km 229.00° 226.58° 3.50° 87 ft / 27 m (AMSL)
23 DME GR 110.50 MHz 18 nm / 33 km - - - 131 ft / 40 m (AMSL)

Popular Alternatives